Air Resources Laboratory banner image
Air Resources Laboratory web site National Oceanic and Atmospheric Administration (NOAA)

sd roundup


Office: FSD

ASUS43 KFSD 171302
RWRSD

WEATHER ROUNDUP FOR SOUTH DAKOTA
NATIONAL WEATHER SERVICE SIOUX FALLS SD
800 AM CDT TUE JUL 17 2018

NOTE: "FAIR" INDICATES FEW OR NO CLOUDS BELOW 12,000 FEET WITH NO
SIGNIFICANT WEATHER AND/OR OBSTRUCTIONS TO VISIBILITY.


SDZ001>005-009-010-012>017-171400-
NORTHWEST AND NORTH CENTRAL SOUTH DAKOTA

CITY           SKY/WX    TMP DP  RH WIND       PRES   REMARKS
BUFFALO          N/A     68  56  65 E5        30.08R
FAITH            N/A     68  64  87 S10       30.13R
MOBRIDGE       SUNNY     65  60  84 E9        30.11R
$$

SDZ012>016-024>037-041>051-057-063-072>074-171400-
SOUTHWEST AND SOUTH CENTRAL SOUTH DAKOTA

CITY           SKY/WX    TMP DP  RH WIND       PRES   REMARKS
RAPID CTY ARPT MOSUNNY   67  63  87 SE8       30.15R
PIERRE         SUNNY     69  63  81 NE3       30.09R
CUSTER         SUNNY     62  57  83 CALM      30.28R
ELLSWORTH AFB  MOSUNNY   66  66 100 CALM      30.15R
PHILIP         SUNNY     67  63  87 CALM      30.11S
PINE RIDGE     SUNNY     65  62  90 S6        30.17R
SPEARFISH      FAIR      64  63  94 CALM      30.19S
WINNER         FAIR      69  64  84 SW5       30.10F
$$

SDZ004>011-016>023-039-040-171400-
NORTHEAST SOUTH DAKOTA

CITY           SKY/WX    TMP DP  RH WIND       PRES   REMARKS
ABERDEEN       SUNNY     65  62  90 NE5       30.14R
WATERTOWN      SUNNY     66  55  67 E7        30.14S
BROOKINGS      MOSUNNY   65  57  75 E9        30.14R
SISSETON         N/A     65  60  84 CALM      30.15S
$$

SDZ017-020-022-023-036>040-048>070-171400-
SOUTHEAST SOUTH DAKOTA

CITY           SKY/WX    TMP DP  RH WIND       PRES   REMARKS
SIOUX FALLS    PTSUNNY   67  62  84 CALM      30.12S
HURON          SUNNY     65  58  78 NE5       30.11S
CHAMBERLAIN    SUNNY     71  70  98 CALM      30.10S
MITCHELL       MOSUNNY   69  62  78 E5        30.10R
YANKTON        PTSUNNY   70  65  84 E5        30.11R
$$

ABBREVIATIONS USED IN REMARKS
   TC - TEMPERATURE IN CELSIUS
  WCI - WIND CHILL INDEX
   HX - HEAT INDEX
  VSB - VISIBILITY



ASUS43 KFSD 171302
RWRFSD

WEATHER ROUNDUP FOR SE SOUTH DAKOTA/SW MINNESOTA/NW IOWA
NATIONAL WEATHER SERVICE SIOUX FALLS SD
800 AM CDT TUE JUL 17 2018

NOTE: "FAIR" INDICATES FEW OR NO CLOUDS BELOW 12,000 FEET WITH NO
SIGNIFICANT WEATHER AND OR OBSTRUCTIONS TO VISIBILITY.


SDZ038>040-050-052>070-171400-
SOUTHEAST SOUTH DAKOTA

CITY           SKY/WX    TMP DP  RH WIND       PRES   REMARKS
BROOKINGS      MOSUNNY   65  57  75 E9        30.14R
CHAMBERLAIN    SUNNY     71  70  98 CALM      30.10S
HURON          SUNNY     65  58  78 NE5       30.11S
MADISON        FAIR      63  63 100 NE6       30.13S
MITCHELL       MOSUNNY   69  62  78 E5        30.10R
SIOUX FALLS    PTSUNNY   67  62  84 CALM      30.12S
WINNER         FAIR      69  64  84 SW5       30.10F
YANKTON        PTSUNNY   70  65  84 E5        30.11R
$$

MNZ071-072-080-081-089-090-097-098-171400-
SOUTHWEST MINNESOTA

CITY           SKY/WX    TMP DP  RH WIND       PRES   REMARKS
FAIRMONT       MOSUNNY   66  60  81 E8        30.13R
JACKSON        CLOUDY    64  61  88 NE5       30.14R
LUVERNE        PTSUNNY   63  57  82 CALM      30.13S
MARSHALL       SUNNY     63  59  87 CALM      30.15S
MONTEVIDEO     SUNNY     68  59  73 CALM      30.15R
PIPESTONE      MOSUNNY   66  61  82 E5        30.13S
REDWOOD FALLS  SUNNY     66  58  75 NE7       30.14R
TRACY          SUNNY     64  60  85 CALM      30.14S
WINDOM         MOSUNNY   66  64  94 NE7       30.13S
WORTHINGTON    MOSUNNY   66  61  84 NE5       30.14S
$$

IAZ001>003-012>014-020>022-031-032-NEZ013-014-SDZ071-171400-
NORTHWEST IOWA

CITY           SKY/WX    TMP DP  RH WIND       PRES   REMARKS
CHEROKEE       CLOUDY    66  65  96 CALM      30.11S
DENISON        CLOUDY    66  64  94 CALM      30.12R
ESTHERVILLE    CLOUDY    67  62  84 NE5       30.12R
ORANGE CITY    CLOUDY    72  61  68 CALM      30.12R
SHELDON        CLOUDY    66  66 100 CALM      30.11R
SIOUX CITY     CLOUDY    68  64  87 CALM      30.10R
SPENCER        PTSUNNY   69  63  81 NE5       30.12R
STORM LAKE     CLOUDY    68  61  77 CALM      30.12S
$$

ABBREVIATIONS USED IN REMARKS
   TC - TEMPERATURE IN CELSIUS
  WCI - WIND CHILL INDEX
   HX - HEAT INDEX
  VSB - VISIBILITY



ASUS43 KFSD 171310
RWRFSD

WEATHER ROUNDUP FOR SE SOUTH DAKOTA/SW MINNESOTA/NW IOWA
NATIONAL WEATHER SERVICE SIOUX FALLS SD
800 AM CDT TUE JUL 17 2018

NOTE: "FAIR" INDICATES FEW OR NO CLOUDS BELOW 12,000 FEET WITH NO
SIGNIFICANT WEATHER AND OR OBSTRUCTIONS TO VISIBILITY.


SDZ038>040-050-052>070-171400-
SOUTHEAST SOUTH DAKOTA

CITY           SKY/WX    TMP DP  RH WIND       PRES   REMARKS
BROOKINGS      MOSUNNY   65  57  75 E9        30.14R
CHAMBERLAIN    SUNNY     71  70  98 CALM      30.10S
HURON          SUNNY     65  58  78 NE5       30.11S
MADISON        FAIR      63  63 100 NE6       30.13S
MITCHELL       MOSUNNY   69  62  78 E5        30.10R
SIOUX FALLS    PTSUNNY   67  62  84 CALM      30.12S
WINNER         FAIR      69  64  84 SW5       30.10F
YANKTON        PTSUNNY   70  65  84 E5        30.11R
$$

MNZ071-072-080-081-089-090-097-098-171400-
SOUTHWEST MINNESOTA

CITY           SKY/WX    TMP DP  RH WIND       PRES   REMARKS
FAIRMONT       MOSUNNY   66  60  81 E8        30.13R
JACKSON        CLOUDY    64  61  88 NE5       30.14R
LUVERNE        PTSUNNY   63  57  82 CALM      30.13S
MARSHALL       MOSUNNY   64  61  88 CALM      30.15S
MONTEVIDEO     SUNNY     68  59  73 CALM      30.15R
PIPESTONE      MOSUNNY   66  61  82 E5        30.13S
REDWOOD FALLS  SUNNY     66  58  75 NE7       30.14R
TRACY          SUNNY     64  60  85 CALM      30.14S
WINDOM         MOSUNNY   66  64  94 NE7       30.13S
WORTHINGTON    MOSUNNY   66  61  84 NE5       30.14S
$$

IAZ001>003-012>014-020>022-031-032-NEZ013-014-SDZ071-171400-
NORTHWEST IOWA

CITY           SKY/WX    TMP DP  RH WIND       PRES   REMARKS
CHEROKEE       CLOUDY    66  65  96 CALM      30.11S
DENISON        CLOUDY    66  64  94 CALM      30.12R
ESTHERVILLE    CLOUDY    67  62  84 NE5       30.12R
ORANGE CITY    CLOUDY    72  61  68 CALM      30.12R
SHELDON        CLOUDY    66  66 100 CALM      30.11R
SIOUX CITY     CLOUDY    68  64  87 CALM      30.10R
SPENCER        PTSUNNY   69  63  81 NE5       30.12R
STORM LAKE     CLOUDY    68  61  77 CALM      30.12S
$$

ABBREVIATIONS USED IN REMARKS
   TC - TEMPERATURE IN CELSIUS
  WCI - WIND CHILL INDEX
   HX - HEAT INDEX
  VSB - VISIBILITY



ASUS43 KFSD 171310
RWRSD

WEATHER ROUNDUP FOR SOUTH DAKOTA
NATIONAL WEATHER SERVICE SIOUX FALLS SD
800 AM CDT TUE JUL 17 2018

NOTE: "FAIR" INDICATES FEW OR NO CLOUDS BELOW 12,000 FEET WITH NO
SIGNIFICANT WEATHER AND/OR OBSTRUCTIONS TO VISIBILITY.


SDZ001>005-009-010-012>017-171400-
NORTHWEST AND NORTH CENTRAL SOUTH DAKOTA

CITY           SKY/WX    TMP DP  RH WIND       PRES   REMARKS
BUFFALO          N/A     68  56  65 E5        30.08R
FAITH            N/A     68  64  87 S10       30.13R
MOBRIDGE       SUNNY     65  60  84 E9        30.11R
$$

SDZ012>016-024>037-041>051-057-063-072>074-171400-
SOUTHWEST AND SOUTH CENTRAL SOUTH DAKOTA

CITY           SKY/WX    TMP DP  RH WIND       PRES   REMARKS
RAPID CTY ARPT MOSUNNY   67  63  87 SE8       30.15R
PIERRE         SUNNY     69  63  81 NE3       30.09R
CUSTER         SUNNY     62  57  83 CALM      30.28R
ELLSWORTH AFB  MOSUNNY   66  66 100 CALM      30.15R
PHILIP         SUNNY     67  63  87 CALM      30.11S
PINE RIDGE     SUNNY     65  62  90 S6        30.17R
SPEARFISH      FAIR      64  63  94 CALM      30.19S
WINNER         FAIR      69  64  84 SW5       30.10F
$$

SDZ004>011-016>023-039-040-171400-
NORTHEAST SOUTH DAKOTA

CITY           SKY/WX    TMP DP  RH WIND       PRES   REMARKS
ABERDEEN       SUNNY     65  62  90 NE5       30.14R
WATERTOWN      SUNNY     66  55  67 E7        30.14S
BROOKINGS      MOSUNNY   65  57  75 E9        30.14R
SISSETON         N/A     65  60  84 CALM      30.15S
$$

SDZ017-020-022-023-036>040-048>070-171400-
SOUTHEAST SOUTH DAKOTA

CITY           SKY/WX    TMP DP  RH WIND       PRES   REMARKS
SIOUX FALLS    PTSUNNY   67  62  84 CALM      30.12S
HURON          SUNNY     65  58  78 NE5       30.11S
CHAMBERLAIN    SUNNY     71  70  98 CALM      30.10S
MITCHELL       MOSUNNY   69  62  78 E5        30.10R
YANKTON        PTSUNNY   70  65  84 E5        30.11R
$$

ABBREVIATIONS USED IN REMARKS
   TC - TEMPERATURE IN CELSIUS
  WCI - WIND CHILL INDEX
   HX - HEAT INDEX
  VSB - VISIBILITY